Dryden, TX

12:40 PM CDT on May 26, 2017 (GMT -0500)
Dryden

Weather History for K6R6 - June, 2013

Change the Weather History Date:

Saturday, June 1, 2013

  Actual Average (KFST) Record (KFST)
Temperature  
Mean Temperature 86 °F -  
Max Temperature 100 °F 92 °F 107 °F (2008)
Min Temperature 73 °F 66 °F 59 °F (2016)
Cooling Degree Days 22    
Growing Degree Days 36 (Base 50)    
Moisture  
Dew Point 65 °F    
Average Humidity 52    
Maximum Humidity 79    
Minimum Humidity 26    
Precipitation  
Precipitation 0.88 in - - ()
Sea Level Pressure  
Sea Level Pressure 29.72 in    
Wind  
Wind Speed 8 mph (ENE)    
Max Wind Speed 29 mph    
Max Gust Speed 39 mph    
Averages and records for this station are not official NWS values.
T = Trace of Precipitation, MM = Missing Value Source: NWS Daily Summary

Daily Weather History Graph

Daily Weather History Graph

Search for Another Location

Airport or City:

Trip Planner

Search our weather history database for the weather conditions in past years. The results will help you decide how hot, cold, wet, or windy it might be!

Date:

Astronomy

Jun. 01, 2013 Rise Set
Actual Time 6:48 AM CDT 8:45 PM CDT
Civil Twilight 6:20 AM CDT 9:12 PM CDT
Nautical Twilight 5:48 AM CDT 9:45 PM CDT
Astronomical Twilight 5:13 AM CDT 10:20 PM CDT
Moon 2:17 AM CDT (6/1) 2:41 PM CDT (6/1)
Length of Visible Light 14h 51m
Length of Day
13h 57m
Last Quarter, 40% of the Moon is Illuminated
Jun 1
Last Quarter
Jun 8
New
Jun 16
First Quarter
Jun 23
Full
Jun 29
Last Quarter

Hourly Weather History & Observations

Time (CDT) Temp. Heat Index Dew Point Humidity Pressure Visibility Wind Dir Wind Speed Gust Speed Precip Events Conditions
12:53 AM 86.0 °F 86.8 °F 63.0 °F 46% 29.62 in - East 3.5 mph - N/A   Unknown
1:53 AM 81.0 °F 82.2 °F 63.0 °F 54% 29.62 in - NNE 5.8 mph - N/A   Unknown
2:53 AM 78.1 °F - 63.0 °F 60% 29.62 in - NE 4.6 mph - N/A   Unknown
3:53 AM 77.0 °F - 63.0 °F 62% 29.63 in - NNE 5.8 mph - N/A   Unknown
4:53 AM 78.1 °F - 64.0 °F 62% 29.64 in - Calm Calm - N/A   Unknown
5:53 AM 75.0 °F - 64.0 °F 69% 29.66 in - NE 5.8 mph - N/A   Unknown
6:53 AM 73.9 °F - 64.9 °F 73% 29.68 in - NE 5.8 mph - N/A   Unknown
7:53 AM 77.0 °F - 68.0 °F 74% 29.70 in - East 8.1 mph - N/A   Unknown
8:53 AM 80.1 °F 82.7 °F 68.0 °F 67% 29.72 in - ESE 6.9 mph - N/A   Unknown
9:53 AM 82.0 °F 84.9 °F 68.0 °F 62% 29.73 in - East 4.6 mph - N/A   Unknown
10:53 AM 86.0 °F 89.4 °F 68.0 °F 55% 29.73 in - Variable 3.5 mph - N/A   Unknown
11:53 AM 89.1 °F 91.0 °F 64.9 °F 45% 29.73 in - Calm Calm - N/A   Unknown
12:53 PM 93.9 °F 94.8 °F 62.1 °F 35% 29.73 in - NE 6.9 mph - N/A   Unknown
1:53 PM 97.0 °F 96.9 °F 60.1 °F 29% 29.72 in - ENE 10.4 mph - N/A   Unknown
2:53 PM 97.0 °F 96.5 °F 59.0 °F 28% 29.71 in - Variable 3.5 mph - N/A   Unknown
3:53 PM 100.0 °F 101.8 °F 62.1 °F 29% 29.69 in - East 12.7 mph 24.2 mph N/A   Unknown
4:53 PM 100.0 °F 101.8 °F 62.1 °F 29% 29.68 in - ENE 10.4 mph 18.4 mph N/A   Unknown
5:53 PM 100.0 °F 100.2 °F 59.0 °F 26% 29.67 in - ENE 13.8 mph 19.6 mph N/A   Unknown
6:53 PM 96.1 °F 98.3 °F 64.0 °F 35% 29.69 in - ESE 16.1 mph 24.2 mph N/A   Unknown
7:53 PM 93.9 °F 96.1 °F 64.9 °F 38% 29.70 in - SE 18.4 mph 24.2 mph N/A   Unknown
8:17 PM 82.4 °F 83.9 °F 64.4 °F 54% 29.89 in - North 24.2 mph 38.0 mph N/A   Unknown
8:53 PM 78.1 °F - 71.1 °F 79% 29.87 in - NE 19.6 mph 27.6 mph 0.39 in   Unknown
9:21 PM 78.8 °F - 68.0 °F 69% 29.90 in - SSE 23.0 mph 26.5 mph 0.45 in   Unknown
9:53 PM 86.0 °F 88.8 °F 66.9 °F 53% 29.74 in - SE 28.8 mph 39.1 mph 0.49 in   Unknown
10:29 PM 86.0 °F 87.3 °F 64.4 °F 48% 29.87 in - NE 15.0 mph 25.3 mph N/A   Unknown
10:53 PM 82.9 °F 85.8 °F 68.0 °F 60% 29.78 in - North 12.7 mph 21.9 mph N/A   Unknown
11:53 PM 80.1 °F 82.7 °F 68.0 °F 67% 29.83 in - North 8.1 mph - N/A   Unknown